User: anonymous   Login
Location: Albany
(35.0000°S, 118.0000°E)
Time: 16:29:44
(UTC-04:00)
Language:

ERS-1 Rocket - Orbit

View from above orbital plane
View from above orbital plane
View from above satellite
View from above satellite

Ground track
Ground track

The orbit data is extracted from the following two-line orbital elements,

1 21610U 91050F   14297.26402698  .00000481  00000-0  16614-3 0  6345
2 21610 098.7321 324.6923 0002168 317.4721 090.7929 14.40376015220891
Epoch (UTC): 24 October 2014 06:20:11
Eccentricity: 0.0002168
inclination: 98.7321°
perigee height: 756 km
apogee height: 759 km
right ascension of ascending node: 324.6923°
argument of perigee: 317.4721°
revolutions per day: 14.40376015
mean anomaly at epoch: 90.7929°
orbit number at epoch: 22089

The dashed part of the orbit path shows where the satellite is in the earth's shadow,  

DLR